Location: City of Moscow
(46.7306°N, 116.9989°W)
Time: 04:15:42
(UTC+00:00)

Cosmos 1937 Rocket - Pass Details

Date: 11 December 2025
Orbit: 743 x 775 km, 74.0° (Epoch: 13 January)

Event Time Altitude Azimuth Distance (km) Brightness Sun altitude
Exits shadow 12:32:04 51° 163° (SSE) 935 3.9 -28.2°
Drops below altitude 10° 12:35:51 10° 161° (SSE) 2,257 6.2 -27.6°
Sets 12:38:12 0° 161° (SSE) 3,180 7.0 -27.2°
